Orbital Elements at Epoch 2459200.5 (2020-Dec-17.0) TDB
Reference: JPL 22 (heliocentric ecliptic J2000)
Element | Value | Uncertainty (1-sigma) | Units |
e | .3167611434347137 | 5.1126e-08 | |
a | 2.168616222233489 | 3.8323e-09 | au |
q | 1.48168286800774 | 1.1046e-07 | au |
i | 5.226826552251673 | 4.4597e-06 | deg |
node | 336.805028844573 | 3.8392e-05 | deg |
peri | 4.752454880507266 | 3.8697e-05 | deg |
M | 152.7578093519285 | 5.9637e-06 | deg |
tp | 2458705.536241272977 (2019-Aug-10.03624127) | 1.8883e-05 | TDB |
period | 1166.467062454499 3.19 | 3.092e-06 8.465e-09 | d yr |
n | .3086242308826811 | 8.1809e-10 | deg/d |
Q | 2.855549576459239 | 5.0463e-09 | au |
|
| | Orbit Determination Parameters
Additional Information
|